| time (UTC) | temp F | wind direction | speed MPH | gust MPH | rain 1hr in | rain 24hr in | rain mn in | humidity % | barometer mb |
| 20260506023055 | 65 | 301 | 5.0 | 9.0 | 0.00 | 0.20 | 0.16 | 37 | 1013.4 |
| 20260506021543 | 66 | 288 | 7.0 | 11.0 | 0.00 | 0.20 | 0.16 | 35 | 1012.9 |
| 20260506020039 | 67 | 271 | 5.0 | 13.0 | 0.00 | 0.20 | 0.16 | 32 | 1012.6 |
| 20260506014540 | 68 | 287 | 8.0 | 14.0 | 0.00 | 0.20 | 0.16 | 30 | 1012.5 |
| 20260506013037 | 69 | 282 | 9.0 | 15.0 | 0.00 | 0.20 | 0.16 | 30 | 1012.4 |
| 20260506011540 | 70 | 235 | 8.0 | 15.0 | 0.00 | 0.20 | 0.16 | 32 | 1012.3 |
| 20260506010054 | 69 | 270 | 9.0 | 17.0 | 0.00 | 0.20 | 0.16 | 31 | 1012.2 |
| 20260506004543 | 70 | 320 | 10.0 | 17.0 | 0.00 | 0.20 | 0.16 | 29 | 1011.9 |
| 20260506003041 | 71 | 267 | 12.0 | 17.0 | 0.00 | 0.20 | 0.16 | 28 | 1012.1 |
| 20260506001544 | 71 | 266 | 11.0 | 18.0 | 0.00 | 0.20 | 0.16 | 26 | 1011.9 |
| 20260506000037 | 71 | 313 | 11.0 | 17.0 | 0.00 | 0.20 | 0.16 | 27 | 1011.7 |
| 20260505234601 | 71 | 206 | 13.0 | 21.0 | 0.00 | 0.20 | 0.16 | 25 | 1011.6 |
| 20260505233042 | 73 | 280 | 8.0 | 21.0 | 0.00 | 0.20 | 0.16 | 22 | 1011.6 |
| 20260505231542 | 72 | 247 | 12.0 | 19.0 | 0.00 | 0.20 | 0.16 | 23 | 1011.5 |
| 20260505230041 | 72 | 270 | 11.0 | 20.0 | 0.00 | 0.20 | 0.16 | 28 | 1011.6 |
| 20260505224542 | 72 | 278 | 10.0 | 20.0 | 0.00 | 0.20 | 0.16 | 31 | 1011.7 |
| 20260505223040 | 73 | 286 | 11.0 | 20.0 | 0.00 | 0.20 | 0.16 | 32 | 1011.9 |
| 20260505221542 | 72 | 243 | 10.0 | 25.0 | 0.00 | 0.20 | 0.16 | 32 | 1011.8 |
| 20260505220045 | 72 | 266 | 9.0 | 21.0 | 0.00 | 0.20 | 0.16 | 33 | 1012.1 |
| 20260505214559 | 73 | 274 | 10.0 | 22.0 | 0.00 | 0.20 | 0.16 | 34 | 1012.1 |
| 20260505213042 | 72 | 245 | 13.0 | 20.0 | 0.00 | 0.20 | 0.16 | 34 | 1012.2 |
| 20260505211539 | 72 | 198 | 12.0 | 20.0 | 0.00 | 0.20 | 0.16 | 34 | 1012.3 |
| 20260505210042 | 73 | 168 | 13.0 | 21.0 | 0.00 | 0.20 | 0.16 | 34 | 1012.5 |
| 20260505204553 | 72 | 251 | 11.0 | 25.0 | 0.00 | 0.20 | 0.16 | 35 | 1012.8 |
| 20260505203047 | 71 | 207 | 12.0 | 25.0 | 0.00 | 0.20 | 0.16 | 37 | 1012.7 |
| 20260505201539 | 72 | 265 | 13.0 | 21.0 | 0.00 | 0.20 | 0.16 | 37 | 1012.9 |
| 20260505200058 | 72 | 226 | 12.0 | 22.0 | 0.00 | 0.20 | 0.16 | 39 | 1013.1 |
| 20260505194545 | 71 | 227 | 12.0 | 19.0 | 0.00 | 0.20 | 0.16 | 39 | 1013.0 |
| 20260505193042 | 71 | 278 | 9.0 | 22.0 | 0.00 | 0.20 | 0.16 | 38 | 1013.1 |
| 20260505191542 | 71 | 311 | 8.0 | 17.0 | 0.00 | 0.20 | 0.16 | 48 | 1013.4 |
| 20260505190042 | 69 | 275 | 9.0 | 15.0 | 0.00 | 0.20 | 0.16 | 51 | 1013.4 |
| 20260505184538 | 67 | 294 | 2.0 | 8.0 | 0.00 | 0.20 | 0.16 | 56 | 1013.6 |
| 20260505183038 | 67 | 302 | 5.0 | 11.0 | 0.00 | 0.20 | 0.16 | 57 | 1013.8 |
| 20260505181543 | 66 | 300 | 3.0 | 8.0 | 0.00 | 0.20 | 0.16 | 59 | 1014.1 |
| 20260505180103 | 66 | 226 | 3.0 | 8.0 | 0.00 | 0.20 | 0.16 | 60 | 1014.1 |
| 20260505174558 | 65 | 311 | 3.0 | 7.0 | 0.00 | 0.20 | 0.16 | 62 | 1014.2 |
| 20260505173045 | 64 | 356 | 4.0 | 7.0 | 0.00 | 0.20 | 0.16 | 62 | 1014.3 |
| 20260505171537 | 64 | 158 | 1.0 | 6.0 | 0.00 | 0.20 | 0.16 | 64 | 1014.3 |
| 20260505170048 | 64 | 160 | 2.0 | 4.0 | 0.00 | 0.20 | 0.16 | 65 | 1014.3 |
| 20260505164539 | 63 | 271 | 3.0 | 5.0 | 0.00 | 0.20 | 0.16 | 66 | 1014.5 |
| 20260505163042 | 62 | 317 | 3.0 | 6.0 | 0.00 | 0.20 | 0.16 | 68 | 1014.5 |
| 20260505161541 | 62 | 339 | 3.0 | 6.0 | 0.00 | 0.20 | 0.16 | 70 | 1014.5 |
| 20260505153045 | 61 | 276 | 2.0 | 4.0 | 0.00 | 0.20 | 0.16 | 73 | 1014.3 |
| 20260505151543 | 60 | 212 | 2.0 | 4.0 | 0.00 | 0.20 | 0.16 | 74 | 1014.3 |
| 20260505124538 | 56 | 126 | 0.0 | 2.0 | 0.00 | 0.20 | 0.16 | 87 | 1013.1 |
| 20260505123047 | 56 | 119 | 1.0 | 2.0 | 0.00 | 0.20 | 0.16 | 86 | 1012.8 |
| 20260505121540 | 56 | 127 | 2.0 | 4.0 | 0.01 | 0.20 | 0.16 | 86 | 1013.2 |
| 20260505120043 | 56 | 124 | 0.0 | 3.0 | 0.01 | 0.20 | 0.16 | 87 | 1012.8 |
| 20260505114538 | 56 | 155 | 1.0 | 4.0 | 0.01 | 0.20 | 0.16 | 87 | 1012.6 |
| 20260505113036 | 56 | 99 | 0.0 | 3.0 | 0.01 | 0.20 | 0.16 | 88 | 1012.7 |
| 20260505111543 | 56 | 117 | 1.0 | 3.0 | 0.00 | 0.19 | 0.15 | 88 | 1013.1 |
| 20260505101542 | 56 | 0 | 0.0 | 4.0 | 0.02 | 0.19 | 0.15 | 91 | 1013.8 |
| 20260505100047 | 56 | 0 | 0.0 | 2.0 | 0.03 | 0.19 | 0.15 | 91 | 1014.2 |
| 20260505094537 | 56 | 106 | 1.0 | 8.0 | 0.04 | 0.19 | 0.15 | 90 | 1014.2 |
| 20260505093040 | 56 | 108 | 1.0 | 5.0 | 0.04 | 0.18 | 0.14 | 90 | 1014.5 |
| 20260505091548 | 56 | 136 | 2.0 | 4.0 | 0.05 | 0.17 | 0.13 | 90 | 1015.0 |
| 20260505090043 | 56 | 128 | 2.0 | 4.0 | 0.06 | 0.16 | 0.12 | 89 | 1015.7 |
| 20260505084544 | 56 | 172 | 2.0 | 4.0 | 0.07 | 0.15 | 0.11 | 89 | 1016.1 |
| 20260505083041 | 56 | 146 | 0.0 | 3.0 | 0.06 | 0.13 | 0.09 | 88 | 1016.6 |
| 20260505081540 | 56 | 0 | 0.0 | 2.0 | 0.07 | 0.12 | 0.08 | 87 | 1016.7 |
| 20260505080037 | 57 | 267 | 1.0 | 4.0 | 0.06 | 0.10 | 0.06 | 87 | 1017.1 |
| 20260505074544 | 57 | 181 | 3.0 | 10.0 | 0.05 | 0.08 | 0.04 | 86 | 1017.1 |
| 20260505073047 | 57 | 233 | 2.0 | 6.0 | 0.05 | 0.07 | 0.03 | 84 | 1017.3 |
| 20260505071551 | 57 | 293 | 0.0 | 2.0 | 0.03 | 0.05 | 0.01 | 85 | 1017.1 |
| 20260505070042 | 57 | 0 | 0.0 | 1.0 | 0.03 | 0.04 | 0.00 | 83 | 1017.0 |
| 20260505064545 | 57 | 216 | 1.0 | 2.0 | 0.02 | 0.03 | 0.03 | 82 | 1017.0 |
| 20260505063048 | 57 | 2 | 2.0 | 5.0 | 0.02 | 0.02 | 0.02 | 82 | 1016.6 |
| 20260505061604 | 58 | 354 | 1.0 | 5.0 | 0.02 | 0.02 | 0.02 | 81 | 1016.6 |
| 20260505060044 | 58 | 12 | 0.0 | 3.0 | 0.01 | 0.01 | 0.01 | 78 | 1016.8 |
| 20260505054544 | 58 | 32 | 1.0 | 3.0 | 0.01 | 0.01 | 0.01 | 77 | 1016.5 |
| 20260505053046 | 59 | 356 | 0.0 | 2.0 | 0.00 | 0.00 | 0.00 | 71 | 1016.5 |
| 20260505051605 | 59 | 360 | 1.0 | 5.0 | 0.00 | 0.00 | 0.00 | 67 | 1016.9 |
| 20260505041540 | 59 | 0 | 0.0 | 2.0 | 0.00 | 0.00 | 0.00 | 65 | 1016.1 |
| 20260505040046 | 59 | 0 | 0.0 | 1.0 | 0.00 | 0.00 | 0.00 | 66 | 1016.5 |
| 20260505034538 | 59 | 109 | 0.0 | 2.0 | 0.00 | 0.00 | 0.00 | 67 | 1015.8 |
| 20260505033042 | 59 | 21 | 2.0 | 8.0 | 0.00 | 0.00 | 0.00 | 67 | 1015.9 |
| 20260505031540 | 60 | 345 | 4.0 | 10.0 | 0.00 | 0.00 | 0.00 | 64 | 1015.9 |
| 20260505030038 | 60 | 329 | 9.0 | 14.0 | 0.00 | 0.00 | 0.00 | 61 | 1016.2 |
| 20260505024547 | 61 | 309 | 6.0 | 10.0 | 0.00 | 0.00 | 0.00 | 59 | 1016.2 |